{"data":{"norad_id":59341,"intl_designator":"2024-057X","name":"STARLINK-31600","alt_names":[],"object_type":"PAYLOAD","status":"ACTIVE","operator":null,"country":"US","launch_date":"2024-03-25","launch_site_code":"AFETR","launch_vehicle":null,"mission":null,"orbit_class":"UNKNOWN","rcs_meters":null,"size_class":null,"mass_kg":null,"dimensions":null,"purposes":["comms"],"wikipedia_slug":null,"has_3d_model":false,"image_url":null,"decayed_at":null,"tle_current":{"epoch":"2026-09-21T03:41:21.250752Z","epoch_age_seconds":105769,"freshness":"FRESH","line1":"1 59341U 24057X   26264.15371818  .00000251  00000+0  18646-4 0  9990","line2":"2 59341  43.0019 170.9037 0001214 270.3977  89.6735 15.27579518139642","mean_motion":15.27579518,"eccentricity":0.0001214,"inclination_deg":43.0019,"raan_deg":170.9037,"arg_perigee_deg":270.3977,"mean_anomaly_deg":89.6735,"bstar":1.8646e-5,"rev_number":13964,"period_min":94.266778457814,"perigee_km":482.21759115416,"apogee_km":483.8834874887,"semimajor_km":6861.1875393214,"source":"CELESTRAK","updated_at":"2026-09-22T09:00:48.902294Z"}}}